Regional Weather Roundup
Issued by NWS

Home | Current Version | Previous Version | Text Only | Print | Product List | Glossary Off
Versions: 1 2 3 4 5 6 7 8 9 10 11 12 13 14 15 16 17 18 19 20 21 22 23 24 25 26 27 28 29 30 31 32 33 34 35 36 37 38 39 40 41 42 43 44 45 46 47 48 49 50

000
ASUS43 KMPX 201410
RWRMN
WEATHER ROUNDUP FOR MINNESOTA
NATIONAL WEATHER SERVICE TWIN CITIES/CHANHASSEN MN
800 AM CST MON NOV 20 2017


NOTE: "FAIR" INDICATES FEW OR NO CLOUDS BELOW 12,000 FEET WITH NO
SIGNIFICANT WEATHER AND/OR OBSTRUCTIONS TO VISIBILITY. N/A MEANS
CURRENT SKY AND/OR WEATHER CONDITIONS ARE NOT AVAILABLE.

MNZ060>063-068>070-201500-
   Twin Cities Metro

CITY           SKY/WX    TMP DP  RH WIND       PRES   REMARKS
TWIN CITIES    CLOUDY    30  27  88 SE7       29.65F WCI  23
ST PAUL        CLOUDY    28  26  92 S5        29.67F WCI  23
CRYSTAL        CLOUDY    28  23  81 SE6       29.63F WCI  22
BLAINE         MOCLDY    32  28  86 S8        29.63F WCI  25
LAKEVILLE      CLOUDY    30  27  86 S3        29.65F
EDEN PRAIRIE   CLOUDY    29  25  85 SE5       29.63F WCI  24
SOUTH ST PAUL  CLOUDY    29  26  91 S5        29.66F WCI  23
LAKE ELMO      FAIR      30  27  86 SE3       29.66F
$$
MNZ001>005-007-008-013>017-022>024-027-028-201500-
   Northwest Minnesota

CITY           SKY/WX    TMP DP  RH WIND       PRES   REMARKS
BEMIDJI        CLOUDY    25  22  89 S9        29.46F WCI  16
HALLOCK        CLOUDY    30  27  86 S16       29.35F WCI  19
ROSEAU         CLOUDY    34  27  75 S10       29.38F WCI  26
WARROAD        CLOUDY    30  25  80 S9        29.41F WCI  22
THIEF RVR FALL CLOUDY    29  24  82 SW8       29.42F WCI  21
CROOKSTON      CLOUDY    30  25  80 S13       29.42F WCI  20
FOSSTON        CLOUDY    30  23  74 S9        29.43F WCI  22
DETROIT LAKES  CLOUDY    32  27  80 S7        29.47F WCI  26
MOORHEAD       CLOUDY    30  25  80 S16       29.46F WCI  19
PARK RAPIDS    CLOUDY    27  22  81 S8        29.48F WCI  19
MAHNOMEN       FAIR      35  25  67 S12       29.43F WCI  26
$$
MNZ006-009>011-018-025>026-201500-
   North Central Minnesota

CITY           SKY/WX    TMP DP  RH WIND       PRES   REMARKS
BAUDETTE       CLOUDY    23  20  88 SE8       29.42F WCI  14
FLAG ISLAND    CLOUDY    25  21  86 SE9       29.40F WCI  15
INTL FALLS     CLOUDY    21  17  84 SE6       29.49F FOG     WCI  13
WASKISH        CLOUDY    28  25  86 SE6       29.46F WCI  22
BIG FORK       CLOUDY    25  21  86 S5        29.50F WCI  19
LONGVILLE      CLOUDY    23  21  93 CALM      29.52F
GRAND RAPIDS   CLOUDY    22  20  92 SE7       29.55F WCI  13
CRANE LAKE     CLOUDY    19  18  93 CALM      29.55F
ORR            CLOUDY    21  18  86 SE5       29.50F WCI  15
COOK           CLOUDY    25  21  86 SE5       29.54F WCI  19
WALKER         FAIR      31  23  72 S7        29.49F WCI  24
$$
MNZ012-019>021-037-201500-
   Northeast Minnesota

CITY           SKY/WX    TMP DP  RH WIND       PRES   REMARKS
DULUTH         CLOUDY    23  23 100 SE7       29.59F WCI  15
ELY            CLOUDY    25  23  93 SE3       29.56F
HIBBING        CLOUDY    19  17  92 CALM      29.56F
EVELETH        CLOUDY    19  16  86 NE3       29.58F
DULUTH HARBOR  CLOUDY    25  21  86 CALM      29.64F
TWO HARBORS    CLOUDY    27  21  80 N5        29.60F WCI  21
SILVER BAY     CLOUDY    21  21 100 CALM      29.61F
GRAND MARAIS     N/A     30  24  78 VRB5      29.67F WCI  25
G MARAIS ARPRT CLOUDY    21  18  86 E6        29.61F WCI  14
$$
MNZ029>031-032-039>041-046>048-054>057-064-201500-
   West Central Minnesota

CITY           SKY/WX    TMP DP  RH WIND       PRES   REMARKS
FERGUS FALLS   CLOUDY    32  25  74 S13       29.51F WCI  22
WHEATON        CLOUDY    32  23  69 SE9       29.52F WCI  24
MORRIS         CLOUDY    27  23  86 SE10      29.52F WCI  17
ALEXANDRIA     CLOUDY    28  24  85 S9        29.53F WCI  19
ELBOW LAKE     FAIR      29  25  84 SE13      29.52F WCI  19
WADENA         CLOUDY    28  25  86 S5        29.50F WCI  23
GLENWOOD       CLOUDY    27  25  93 SE5       29.55F WCI  21
APPLETON       CLOUDY    28  23  80 SE5       29.54F WCI  23
BENSON         CLOUDY    27  21  80 S6        29.56F WCI  20
ORTONVILLE     CLOUDY    28  23  80 MISG      29.52F
MADISON        CLOUDY    28  25  86 SE7       29.54F WCI  21
WILLMAR        FAIR      28  25  86 SE7       29.57F WCI  21
$$
MNZ033>034-036-042>043-049>051-058-059-201500-
   Central Minnesota

CITY           SKY/WX    TMP DP  RH WIND       PRES   REMARKS
ST CLOUD       CLOUDY    26  24  92 SE7       29.58F WCI  18
SAUK CENTRE    FAIR      23  22  93 S6        29.55F WCI  16
PAYNESVILLE    CLOUDY    30  27  88 SE10      29.57F WCI  21
AITKIN         CLOUDY    27  25  93 SE5       29.54F WCI  21
PINE RIVER     CLOUDY    25  21  86 SE6       29.56F WCI  18
BRAINERD       CLOUDY    25  21  85 SE3       29.55F
STAPLES        CLOUDY    25  23  93 S3        29.52F
LONG PRAIRIE   FAIR      25  23  93 SE3       29.55F
LITTLE FALLS   CLOUDY    28  21  74 SE5       29.56F WCI  23
LITCHFIELD     CLOUDY    30  27  86 SE3       29.59F
BUFFALO        CLOUDY    29  26  86 S5        29.62F WCI  24
MAPLE LAKE     CLOUDY    29  27  94 S6        29.61F WCI  23
HUTCHINSON     CLOUDY    27  25  93 SE6       29.60F WCI  20
$$
MNZ037-044-045-052-053-201500-
   East Central Minnesota

CITY           SKY/WX    TMP DP  RH WIND       PRES   REMARKS
PRINCETON      CLOUDY    27  25  93 SE5       29.60F WCI  21
MORA           CLOUDY    21  21 100 CALM      29.62F
CAMBRIDGE      CLOUDY    30  27  86 SE6       29.62F WCI  24
RUSH CITY      CLOUDY    27  25  91 S6        29.63S WCI  21
MOOSE LAKE     CLOUDY    18  16  93 CALM      29.58F
HINCKLEY       FAIR      21  21 100 CALM      29.62F
CLOQUET        CLOUDY    21  18  86 E5        29.58F WCI  15
MCGREGOR       CLOUDY    27  25  93 S6        29.56F WCI  20
$$
MNZ071>073-080-081-089-090-097-098-201500-
   Southwest Minnesota

CITY           SKY/WX    TMP DP  RH WIND       PRES   REMARKS
MONTEVIDEO     CLOUDY    30  25  80 S3        29.54F
GRANITE FALLS  CLOUDY    29  25  84 SE12      29.58F WCI  19
CANBY          CLOUDY    40  26  57 SW14      29.55S
MARSHALL       CLOUDY    34  25  69 CALM      29.56F
REDWOOD FALLS  CLOUDY    27  21  78 SE6       29.58F WCI  20
OLIVIA         CLOUDY    28  25  86 SE6       29.58F WCI  22
PIPESTONE      CLOUDY    27  21  80 S3        29.58F
WINDOM         CLOUDY    34  19  55 S10       29.60F WCI  26
WORTHINGTON    CLOUDY    33  25  72 SW16      29.60F WCI  23
JACKSON        CLOUDY    32  27  80 S13       29.61F WCI  22
SLAYTON        CLOUDY    30  25  80 SW12      29.59F WCI  21
$$
MNZ065>067-074>077-082>085-091>093-201500-
   South Central Minnesota

CITY           SKY/WX    TMP DP  RH WIND       PRES   REMARKS
MANKATO        CLOUDY    31  26  82 S9        29.63F WCI  23
NEW ULM        CLOUDY    28  23  80 CALM      29.61S
ST JAMES       CLOUDY    30  27  86 S10       29.62F WCI  21
FAIRMONT       CLOUDY    30  26  85 S10       29.63F WCI  21
GLENCOE        CLOUDY    30  27  89 SE6       29.61F WCI  24
FARIBAULT      CLOUDY    30  27  86 S8        29.65F WCI  23
OWATONNA       CLOUDY    32  27  80 S14       29.65F WCI  22
WASECA         CLOUDY    32  27  80 S10       29.66F WCI  24
ALBERT LEA     CLOUDY    34  25  69 S9        29.67F WCI  26
$$
MNZ078>079-086>088-094>096-201500-
   Southeast Minnesota

CITY           SKY/WX    TMP DP  RH WIND       PRES   REMARKS
ROCHESTER      CLOUDY    31  26  82 S14       29.69F WCI  21
RED WING       CLOUDY    32  25  74 SE5       29.69S WCI  27
STANTON        CLOUDY    32  27  80 S6        29.65F WCI  27
DODGE CENTER   CLOUDY    30  27  86 S13       29.66F WCI  20
WINONA         CLOUDY    34  30  86 SE5       29.74S WCI  30
AUSTIN         CLOUDY    28  25  86 S8        29.69F WCI  20
PRESTON        CLOUDY    32  26  78 S13       29.72S WCI  22
$$
ABBREVIATIONS USED IN REMARKS
   TC - TEMPERATURES IN CELSIUS
  WCI - WIND CHILL INDEX
   HX - HEAT INDEX
  VSB - VISIBILITY
$$




USA.gov is the U.S. government's official web portal to all federal, state and local government web resources and services.